This demonstration page uses our WeatherBlox Daily Observations layout. Learn more.

Left ArrowRight Arrow

Hourly Observations for January 23, 2020

Temp ( °F °C ) Dew Point ( °F °C ) Humidity (%) Winds ( mph kmh ) Pressure ( in mb ) Visibility ( mi km ) Precip ( " mm )
12:15 am 00:15 Clear 32 0 25 -4 75 75 SSE 7 11 30.25 1024 10 16.0934 N/A
12:35 am 00:35 Clear 32 0 25 -4 75 75 SSE 7 11 30.25 1024 10 16.0934 N/A
12:55 am 00:55 Clear 32 0 25 -4 75 75 SSE 7 11 30.24 1024 10 16.0934 N/A
1:15 am 01:15 Clear 32 0 25 -4 75 75 SSE 6 9 30.24 1024 10 16.0934 N/A
1:36 am 01:36 Clear 32 0 25 -4 75 75 SSE 8 13 30.23 1024 10 16.0934 N/A
1:55 am 01:55 Clear 32 0 25 -4 75 75 SSE 6 9 30.23 1024 10 16.0934 N/A
2:16 am 02:16 Clear 32 0 25 -4 75 75 SSE 7 11 30.22 1023 10 16.0934 N/A
2:36 am 02:36 Clear 32 0 25 -4 75 75 SSE 8 13 30.22 1023 10 16.0934 N/A
2:55 am 02:55 Clear 32 0 25 -4 75 75 SSE 8 13 30.22 1023 10 16.0934 N/A
3:15 am 03:15 Partly Cloudy 32 0 25 -4 75 75 SSE 8 13 30.23 1024 10 16.0934 N/A
3:36 am 03:36 Partly Cloudy 32 0 25 -4 75 75 SSE 8 13 30.22 1023 10 16.0934 N/A
3:56 am 03:56 Clear 32 0 25 -4 75 75 SSE 6 9 30.22 1023 10 16.0934 N/A
4:15 am 04:15 Clear 30 -1 23 -5 75 75 SSE 5 7 30.22 1023 10 16.0934 N/A
4:35 am 04:35 Clear 30 -1 23 -5 75 75 SSE 6 9 30.21 1023 10 16.0934 N/A
4:55 am 04:55 Clear 30 -1 23 -5 75 75 SSE 6 9 30.21 1023 10 16.0934 N/A
5:15 am 05:15 Clear 30 -1 23 -5 75 75 SSE 5 7 30.2 1023 10 16.0934 N/A
5:36 am 05:36 Clear 32 0 23 -5 69 69 SSE 6 9 30.21 1023 10 16.0934 N/A
5:56 am 05:56 Partly Cloudy 32 0 23 -5 69 69 SSE 8 13 30.2 1023 10 16.0934 N/A
6:15 am 06:15 Partly Cloudy 32 0 23 -5 69 69 SSE 8 13 30.2 1023 10 16.0934 N/A
6:36 am 06:36 Mostly Cloudy 32 0 23 -5 69 69 SSE 10 17 30.2 1023 10 16.0934 N/A
6:55 am 06:55 Cloudy 32 0 23 -5 69 69 SSE 10 17 30.2 1023 10 16.0934 N/A
7:15 am 07:15 Cloudy 32 0 23 -5 69 69 SSE 9 15 30.2 1023 10 16.0934 N/A
7:36 am 07:36 Mostly Cloudy 32 0 25 -4 75 75 SSE 7 11 30.21 1023 10 16.0934 N/A
7:55 am 07:55 Mostly Cloudy 32 0 25 -4 75 75 SSE 7 11 30.2 1023 10 16.0934 N/A
8:15 am 08:15 Cloudy 32 0 25 -4 75 75 SSE 8 13 30.19 1022 10 16.0934 N/A
8:35 am 08:35 Cloudy 32 0 25 -4 75 75 S 5 7 30.19 1022 10 16.0934 N/A
8:55 am 08:55 Cloudy 34 1 25 -4 70 70 SSE 6 9 30.19 1022 10 16.0934 N/A
9:16 am 09:16 Cloudy 34 1 25 -4 70 70 SSE 9 15 30.18 1022 10 16.0934 N/A
9:36 am 09:36 Mostly Cloudy 36 2 25 -4 65 65 SSE 8 13 30.18 1022 10 16.0934 N/A
9:55 am 09:55 Cloudy 36 2 25 -4 65 65 SSE 8 13 30.18 1022 10 16.0934 N/A
10:15 am 10:15 Cloudy 36 2 25 -4 65 65 S 8 13 30.19 1022 10 16.0934 N/A
10:35 am 10:35 Cloudy 37 3 27 -3 65 65 SSE 9 15 30.19 1023 10 16.0934 N/A
10:56 am 10:56 Cloudy 39 4 27 -3 61 61 S 9 15 30.19 1022 10 16.0934 N/A
11:15 am 11:15 Cloudy 39 4 27 -3 61 61 S 10 17 30.19 1022 10 16.0934 N/A
11:35 am 11:35 Cloudy 39 4 27 -3 61 61 SSE 9 15 30.18 1022 10 16.0934 N/A
11:56 am 11:56 Cloudy 39 4 27 -3 61 61 S 12 19 30.17 1022 10 16.0934 N/A
12:15 pm 12:15 Cloudy 41 5 27 -3 57 57 S 10 17 30.16 1021 10 16.0934 N/A
12:56 pm 12:56 Cloudy 41 5 28 -2 61 61 S 10 17 30.15 1021 10 16.0934 N/A
1:15 pm 13:15 Cloudy 43 6 28 -2 57 57 S 8 13 30.12 1020 10 16.0934 N/A
3:36 pm 15:36 Cloudy 43 6 28 -2 57 57 SSE 7 11 30.09 1019 10 16.0934 N/A
3:56 pm 15:56 Cloudy 43 6 28 -2 57 57 SSE 7 11 30.09 1019 10 16.0934 N/A
4:16 pm 16:16 Partly Cloudy 43 6 30 -1 61 61 SSE 3 6 30.09 1019 10 16.0934 N/A
4:36 pm 16:36 Partly Cloudy 43 6 28 -2 57 57 SSE 6 9 30.09 1019 10 16.0934 N/A
4:55 pm 16:55 Mostly Cloudy 41 5 30 -1 66 66 ESE 6 9 30.1 1019 10 16.0934 N/A
5:15 pm 17:15 Cloudy 41 5 30 -1 66 66 SE 8 13 30.09 1019 10 16.0934 N/A
5:55 pm 17:55 Cloudy 39 4 30 -1 70 70 ESE 9 15 30.09 1019 10 16.0934 N/A
6:56 pm 18:56 Cloudy 39 4 32 0 75 75 SE 8 13 30.09 1019 10 16.0934 N/A
7:16 pm 19:16 Cloudy 39 4 32 0 75 75 ESE 9 15 30.09 1019 10 16.0934 N/A
7:36 pm 19:36 Cloudy 37 3 34 1 87 87 ESE 8 13 30.08 1019 10 16.0934 N/A
7:56 pm 19:56 Cloudy 36 2 34 1 93 93 ESE 8 13 30.09 1019 10 16.0934 N/A
8:16 pm 20:16 Cloudy 36 2 36 2 100 100 E 5 7 30.08 1019 10 16.0934 N/A
8:35 pm 20:35 Cloudy 36 2 36 2 100 100 ESE 6 9 30.08 1019 10 16.0934 N/A
8:56 pm 20:56 Cloudy 36 2 36 2 100 100 ESE 10 17 30.08 1019 10 16.0934 N/A
9:15 pm 21:15 Cloudy 36 2 36 2 100 100 ESE 9 15 30.07 1018 10 16.0934 N/A
9:35 pm 21:35 Cloudy 36 2 36 2 100 100 ESE 13 20 30.06 1018 7 11.26538 N/A
9:55 pm 21:55 Cloudy 36 2 36 2 100 100 ESE 12 19 30.05 1018 4 6.43736 N/A
10:15 pm 22:15 Cloudy 36 2 36 2 100 100 ESE 9 15 30.05 1018 5 8.0467 N/A
10:35 pm 22:35 Cloudy 36 2 36 2 100 100 ESE 10 17 30.04 1017 5 8.0467 N/A
10:56 pm 22:56 Cloudy 36 2 36 2 100 100 E 7 11 30.03 1017 10 16.0934 N/A
11:16 pm 23:16 Cloudy 36 2 36 2 100 100 ESE 9 15 30.02 1017 5 8.0467 N/A
11:35 pm 23:35 Cloudy 36 2 36 2 100 100 ESE 9 15 30.01 1016 4 6.43736 N/A
11:55 pm 23:55 Cloudy 36 2 36 2 100 100 ESE 9 15 30 1016 3 4.82802 N/A

Powered by AerisWeather